Location: Broek
(53.2737°N, 5.9967°E)
Time: 22:25:13
(UTC+00:00)

Cosmos 2322 Rocket - Pass Details

Date: 10 October 2024
Orbit: 833 x 849 km, 71.0° (Epoch: 09 November)

Event Time Altitude Azimuth Distance (km) Brightness Sun altitude
Rises 19:38:24 0° 328° (NNW) 3,413 6.2 -25.4°
Reaches altitude 10° 19:40:57 10° 334° (NNW) 2,472 5.3 -25.8°
Enters shadow 19:46:13 50° 40° (NE) 1,065 2.5 -26.5°
